Location: Jackson Park
(37.2862°N, 79.9123°W)
Time: 20:46:14
(UTC+00:00)

Vanguard 3 - Pass Details

Date: 12 May 2026
Orbit: 507 x 3205 km, 33.4° (Epoch: 31 May)

Event Time Altitude Azimuth Distance (km) Brightness Sun altitude
Rises 02:29:20 0° 282° (WNW) 6,127 12.5 -22.1°
Reaches altitude 10° 02:34:55 10° 271° (W) 4,617 11.5 -22.9°
Maximum altitude 02:43:33 24° 225° (SW) 2,769 9.8 -24.0°
Enters shadow 02:46:38 20° 196° (SSW) 2,679 9.5 -24.4°
Drops below altitude 10° 02:49:27 10° 174° (S) 3,011 - -24.7°
Sets 02:52:13 0° 160° (SSE) 3,638 - -25.1°
